Regional Weather Roundup
Issued by NWS

Home | Current Version | Previous Version | Text Only | Print | Product List | Glossary Off
Versions: 1 2 3 4 5 6 7 8 9 10 11 12 13 14 15 16 17 18 19 20 21 22 23 24 25 26 27 28 29 30 31 32 33 34 35 36 37 38 39 40 41 42 43 44 45 46 47 48 49 50

000
ASUS43 KOAX 242202
RWRNE

WEATHER ROUNDUP FOR NEBRASKA
NATIONAL WEATHER SERVICE OMAHA NE
400 PM CST FRI FEB 24 2017

NOTES: SATELLITE DATA IS BEING USED TO AUGMENT CLOUD COVER ABOVE
       12000 FEET.
       "FAIR" INDICATES FEW OR NO CLOUDS BELOW 12,000 FEET WITH NO
       SIGNIFICANT WEATHER AND/OR OBSTRUCTIONS TO VISIBILITY.

  * THESE STATIONS DO NOT REPORT WEATHER SUCH AS RAIN...SNOW OR FOG.

NEZ001>004-019>022-054>056-242300-
NEBRASKA PANHANDLE

CITY           SKY/WX    TMP DP  RH WIND       PRES   REMARKS
SCOTTSBLUFF    CLOUDY    23  17  78 CALM      30.04R
ALLIANCE       CLOUDY    21  16  81 N7        30.02R WCI  12
CHADRON        CLOUDY    21  14  74 W7        30.08R WCI  12
KIMBALL        FLURRIES  23  18  83 CALM      29.99R
SIDNEY         SUNNY     22  14  71 NW8       30.01S WCI  12
$$

NEZ057>060-069>072-079>082-242300-
SOUTHWEST NEBRASKA

CITY           SKY/WX    TMP DP  RH WIND       PRES   REMARKS
NORTH PLATTE   PTSUNNY   24  12  60 N17G24    30.05R WCI  11
IMPERIAL       CLOUDY    26  16  65 N14       30.04R WCI  14
LEXINGTON      MOSUNNY   25  15  63 NW22      30.03R WCI  11
MCCOOK         MOSUNNY   28  16  60 N17       30.04R WCI  16
OGALLALA       CLOUDY    28  17  65 NW9       30.05R WCI  19
$$

NEZ005>010-023>029-035>040-094-242300-
NORTH CENTRAL NEBRASKA

CITY           SKY/WX    TMP DP  RH WIND       PRES   REMARKS
VALENTINE      MOSUNNY   24  12  60 NW12      30.07S WCI  13
AINSWORTH      CLOUDY    24  16  73 NW17      30.05S WCI  10
BROKEN BOW     PTSUNNY   23  15  71 N25G32    30.02R WCI   7
O`NEILL        CLOUDY    25  18  74 NW18      30.02R WCI  11
ORD            MOSUNNY   24  14  65 N25G36    30.01R WCI   8
THEDFORD       CLOUDY    22  14  71 NW16      30.06R WCI   8
$$

NEZ041-046>049-061>064-073>077-083>087-242300-
SOUTH CENTRAL NEBRASKA

CITY           SKY/WX    TMP DP  RH WIND       PRES   REMARKS
GRAND ISLAND   MOSUNNY   24  16  71 N26       30.00R WCI   8
AURORA         PTSUNNY   25  18  76 N18G28    29.99R WCI  11
HASTINGS       MOSUNNY   26  16  65 N25G32    30.00R WCI  11
HEBRON         PTSUNNY   25  19  79 N22G33    29.97R WCI  10
HOLDREGE       MOSUNNY   25  15  64 N17G25    30.02R WCI  12
KEARNEY *      MOSUNNY   25  12  58 N18       30.01R WCI  11
YORK           CLOUDY    25  18  74 N14       29.97R HAZE    WCI  13
$$

NEZ011>018-030>034-042>045-242300-
NORTHEAST NEBRASKA

CITY           SKY/WX    TMP DP  RH WIND       PRES   REMARKS
NORFOLK        MOSUNNY   25  15  66 NW22G35   29.95R HAZE    WCI  10
ALBION         CLOUDY    27  15  62 N21G26    29.98R WCI  13
BLAIR          CLOUDY    25  20  81 NW21      29.88R HAZE    WCI  10
FREMONT        CLOUDY    26  18  73 NW22G33   29.93R WCI  11
TEKAMAH        CLOUDY    25  17  72 NW22G32   29.92R WCI  10
WAYNE          CLOUDY    26  17  70 NW15      29.95R WCI  13
$$

NEZ050>053-065>068-078-088>093-242300-
SOUTHEAST NEBRASKA

CITY           SKY/WX    TMP DP  RH WIND       PRES   REMARKS
LINCOLN        LGT SNOW  26  21  81 N24G30    29.94R WCI  11
OMAHA EPPLEY   LGT SNOW  25  19  78 N18G31    29.90R VSB 1   WCI  11
BEATRICE       LGT SNOW  26  23  87 NW23G31   29.93R WCI  11
FALLS CITY     LGT SNOW  28  23  81 NW17G25   29.88R WCI  16
NEBRASKA CITY  LGT SNOW  25  21  85 N17G23    29.89R WCI  12
PLATTSMOUTH    LGT SNOW  25  19  78 NW16G25   29.89R WCI  12
$$

NEZ044-045-051>053-067-242300-
OMAHA AREA

CITY           SKY/WX    TMP DP  RH WIND       PRES   REMARKS
OMAHA EPPLEY   LGT SNOW  25  19  78 N18G31    29.90R VSB 1   WCI  11
BLAIR          CLOUDY    25  20  81 NW21      29.88R HAZE    WCI  10
FREMONT        CLOUDY    26  18  73 NW22G33   29.93R WCI  11
MILLARD        LGT SNOW  27  21  78 NW15G32   29.92R WCI  15
OFFUTT AFB     LGT SNOW  25  20  82 NW15G26   29.90R WCI  13
PLATTSMOUTH    LGT SNOW  25  19  78 NW16G25   29.89R WCI  12
WAHOO          CLOUDY    25  18  74 NW24G33   29.92R HAZE    WCI  10
$$




USA.gov is the U.S. government's official web portal to all federal, state and local government web resources and services.